Content
SEND FEEDBACK

Daily
Averages
Monthly
Summary
United States of America

CHICAGO, ILLINOIS


Home > North America > United States > Illinois
Elevation: 674 feet     Latitude: 41 59N     Longitude: 087 54W

WEATHER
 
SELECT A DAY
Number of Records: 197,767;   Date Range: 7/8/95 - 10/18/14
 
SHARE

PRINT THIS DATA

[ ← Previous Day ]
WEATHER ALMANAC - AUGUST 28, 2013
[ Next Day → ]
[ °C ]   °F
Weather ElementAverageHighLow
Temperature75.9 °F82.9 °F (1:52 am)71.1 °F (8:52 pm)
Dewpoint68.7 °F70 °F (4:52 am)66 °F (1:52 am)
Humidity78.7 %90 % (10:52 pm)56 % (1:52 am)
Barometer29.98 in30.06 in (10:16 pm)29.83 in (1:52 am)
Wind Speed6.5 mph12.7 mph (5:18 pm)
Wind Gust18.4 mph (2:52 pm)
Weather ElementAverage
Visibility8.4 mi
Wind DirectionNE (45 °)

Weather ElementTotal
Precipitation---
Cooling Degree Days12 (Base 65)
Growing Degree Days27 (Base 50)
Averaged from 34 records on August 28, 2013
WEATHER CONDITIONS BREAKOUT
WIND DIRECTION BREAKOUT
WEATHER BY HOUR - AUGUST 28, 2013
[ °C ]   °F
Local TimeTemperatureDewpointHumidityBarometerVisibilityWind DirectionWind SpeedGust SpeedPrecipitationEventsConditions
1:52 AM82.9 °F66.0 °F56 %29.83 in10.0 miWest (260°)4.6 mphClear
2:52 AM82.0 °F66.0 °F58 %29.84 in10.0 miWest (270°)8.1 mphMostly Cloudy
3:52 AM81.0 °F66.9 °F62 %29.87 in10.0 miNNE (30°)4.6 mphMostly Cloudy
4:52 AM73.9 °F70.0 °F87 %29.88 in7.0 miNE (40°)3.5 mphMostly Cloudy
5:43 AM73.4 °F69.8 °F88 %29.92 in7.0 miNNE (30°)3.5 mphMostly Cloudy
5:52 AM73.9 °F70.0 °F87 %29.91 in7.0 miNE (40°)4.6 mphMostly Cloudy
6:52 AM73.9 °F70.0 °F87 %29.92 in5.0 miCalmMostly Cloudy
7:24 AM75.2 °F69.8 °F83 %29.94 in6.0 miVariable3.5 mphHaze
7:52 AM75.9 °F70.0 °F82 %29.93 in8.0 miNorth (10°)3.5 mphClear
8:41 AM75.2 °F69.8 °F83 %29.96 in8.0 miNE (40°)8.1 mphMostly Cloudy
8:52 AM75.0 °F70.0 °F84 %29.95 in6.0 miNNE (20°)6.9 mphHaze
9:00 AM75.2 °F69.8 °F83 %29.97 in7.0 miNNE (30°)10.4 mphOvercast
9:36 AM77.0 °F69.8 °F78 %29.97 in10.0 miNNE (20°)8.1 mphOvercast
9:52 AM77.0 °F69.1 °F76 %29.96 in10.0 miNNE (20°)6.9 mphOvercast
10:52 AM75.9 °F69.1 °F79 %29.98 in10.0 miNE (40°)9.2 mphOvercast
11:14 AM78.8 °F69.8 °F74 %29.99 in10.0 miNE (40°)4.6 mphOvercast
11:52 AM77.0 °F69.1 °F76 %29.99 in10.0 miNE (40°)8.1 mphOvercast
12:52 PM78.1 °F69.1 °F74 %29.99 in9.0 miNE (40°)8.1 mphOvercast
1:52 PM81.0 °F69.1 °F67 %29.99 in10.0 miNE (40°)8.1 mphOvercast
2:40 PM80.6 °F69.8 °F70 %30.00 in10.0 miNE (40°)9.2 mphScattered Clouds
2:52 PM80.1 °F69.1 °F69 %30.00 in10.0 miNE (50°)11.5 mph18.4 mphPartly Cloudy
3:52 PM77.0 °F68.0 °F74 %30.00 in10.0 miNE (40°)10.4 mphMostly Cloudy
4:52 PM78.1 °F69.1 °F74 %30.02 in10.0 miNE (40°)8.1 mphMostly Cloudy
5:18 PM77.0 °F68.0 °F74 %30.03 in10.0 miNE (50°)12.7 mphScattered Clouds
5:52 PM77.0 °F68.0 °F74 %30.02 in10.0 miVariable5.8 mphClear
6:52 PM75.0 °F68.0 °F79 %30.02 in10.0 miNNE (30°)8.1 mphClear
7:52 PM73.0 °F68.0 °F84 %30.03 in9.0 miENE (60°)5.8 mphClear
8:08 PM71.6 °F68.0 °F88 %30.05 in7.0 miNE (40°)6.9 mphScattered Clouds
8:18 PM71.6 °F68.0 °F88 %30.05 in5.0 miNE (40°)6.9 mphMostly Cloudy
8:52 PM71.1 °F66.9 °F87 %30.04 in6.0 miNNE (30°)6.9 mphOvercast
9:52 PM72.0 °F68.0 °F87 %30.05 in8.0 miNE (40°)5.8 mphOvercast
10:16 PM71.6 °F68.0 °F88 %30.06 in6.0 miNE (40°)4.6 mphOvercast
10:52 PM71.1 °F68.0 °F90 %30.06 in7.0 miNNE (20°)4.6 mphOvercast
11:52 PM72.0 °F68.0 °F87 %30.06 in7.0 miCalmOvercast
Hourly data recorded from KPWK, located miles away from Chicago, Illinois







STORIES FROM OUR PARTNERS